Weather History for Orange City, IA

Change the Weather History Date:

Monday, November 19, 2012

  Actual Average Record
Temperature  
Mean Temperature 44 °F -  
Max Temperature 55 °F 41 °F 68 °F (2003)
Min Temperature 33 °F 24 °F 15 °F (2014)
Degree Days  
Heating Degree Days 21    
Moisture  
Dew Point 36 °F    
Average Humidity 73    
Maximum Humidity 93    
Minimum Humidity 51    
Precipitation  
Precipitation 0.00 in - - ()
Sea Level Pressure  
Sea Level Pressure 30.02 in    
Wind  
Wind Speed 7 mph (WSW)    
Max Wind Speed 15 mph    
Max Gust Speed 16 mph    
Visibility 10 miles    
Events      
Averages and records for this station are not official NWS values.
T = Trace of Precipitation, MM = Missing Value Source: NWS Daily Summary

Daily Weather History Graph

Daily Weather History Graph

Search for Another Location

Airport:

Trip Planner

Search our weather history database for the weather conditions in past years. The results will help you decide how hot, cold, wet, or windy it might be!

Date:

Astronomy

Nov. 19, 2012 Rise Set
Actual Time 7:22 AM CST 4:56 PM CST
Civil Twilight 6:51 AM CST 5:27 PM CST
Nautical Twilight 6:16 AM CST 6:02 PM CST
Astronomical Twilight 5:42 AM CST 6:36 PM CST
Moon 12:22 PM CST (11/19) 11:29 PM CST (11/19)
Length of Visible Light 10h 36m
Length of Day
9h 34m
Waxing Crescent, 41% of the Moon is Illuminated
Nov 19
Waxing Crescent
Nov 20
First Quarter
Nov 28
Full
Dec 6
Last Quarter
Dec 13
New

Hourly Weather History & Observations

Time (CST) Temp. Windchill Dew Point Humidity Pressure Visibility Wind Dir Wind Speed Gust Speed Precip Events Conditions
12:15 AM 44.6 °F 40.7 °F 35.6 °F 71% 30.01 in 10.0 mi SSE 6.9 mph - N/A   Clear
12:35 AM 44.6 °F 40.7 °F 35.6 °F 71% 30.01 in 10.0 mi South 6.9 mph - N/A   Clear
12:55 AM 44.6 °F 40.7 °F 35.6 °F 71% 30.00 in 10.0 mi SSE 6.9 mph - N/A   Clear
1:15 AM 44.6 °F 41.4 °F 35.6 °F 71% 30.00 in 10.0 mi SSE 5.8 mph - N/A   Clear
1:35 AM 42.8 °F 39.3 °F 35.6 °F 76% 29.99 in 10.0 mi SSE 5.8 mph - N/A   Clear
1:55 AM 42.8 °F 39.3 °F 35.6 °F 76% 30.00 in 10.0 mi SSE 5.8 mph - N/A   Clear
2:15 AM 42.8 °F 39.3 °F 35.6 °F 76% 29.99 in 10.0 mi SSE 5.8 mph - N/A   Clear
2:35 AM 42.8 °F 38.0 °F 35.6 °F 76% 29.99 in 10.0 mi South 8.1 mph - N/A   Clear
2:55 AM 39.2 °F 35.0 °F 35.6 °F 87% 29.99 in 10.0 mi South 5.8 mph - N/A   Clear
3:15 AM 42.8 °F 39.3 °F 35.6 °F 76% 29.99 in 10.0 mi South 5.8 mph - N/A   Clear
3:35 AM 42.8 °F 38.6 °F 35.6 °F 76% 29.97 in 10.0 mi SSE 6.9 mph - N/A   Clear
3:55 AM 42.8 °F 38.6 °F 35.6 °F 76% 29.97 in 10.0 mi SSE 6.9 mph - N/A   Clear
4:15 AM 41.0 °F 38.0 °F 35.6 °F 81% 29.98 in 10.0 mi South 4.6 mph - N/A   Clear
4:35 AM 41.0 °F 37.1 °F 35.6 °F 81% 29.97 in 10.0 mi SSE 5.8 mph - N/A   Clear
4:55 AM 41.0 °F 35.8 °F 35.6 °F 81% 29.97 in 10.0 mi South 8.1 mph - N/A   Clear
5:15 AM 39.2 °F 35.0 °F 35.6 °F 87% 29.97 in 10.0 mi SSE 5.8 mph - N/A   Clear
5:35 AM 39.2 °F 35.0 °F 33.8 °F 81% 29.98 in 10.0 mi SSE 5.8 mph - N/A   Clear
5:55 AM 39.2 °F 34.2 °F 33.8 °F 81% - 10.0 mi SSE 6.9 mph - N/A   Clear
6:15 AM 39.2 °F 35.0 °F 33.8 °F 81% 29.96 in 10.0 mi SSE 5.8 mph - N/A   Clear
6:35 AM 37.4 °F 32.8 °F 32.0 °F 81% 29.96 in 10.0 mi SSE 5.8 mph - N/A   Clear
6:55 AM 37.4 °F 32.1 °F 32.0 °F 81% 29.97 in 10.0 mi SSE 6.9 mph - N/A   Clear
7:35 AM 37.4 °F 34.9 °F 32.0 °F 81% 29.97 in 10.0 mi SSE 3.5 mph - N/A   Clear
7:55 AM 37.4 °F 32.8 °F 33.8 °F 87% 29.98 in 10.0 mi SSE 5.8 mph - N/A   Clear
8:15 AM 37.4 °F 33.8 °F 33.8 °F 87% 29.98 in 10.0 mi ESE 4.6 mph - N/A   Clear
8:35 AM 39.2 °F 35.9 °F 35.6 °F 87% 29.99 in 10.0 mi SSE 4.6 mph - N/A   Clear
8:55 AM 42.8 °F 40.1 °F 35.6 °F 76% 29.99 in 10.0 mi South 4.6 mph - N/A   Clear
9:15 AM 42.8 °F 38.6 °F 37.4 °F 81% 29.99 in 10.0 mi South 6.9 mph - N/A   Clear
9:35 AM 46.4 °F 41.9 °F 37.4 °F 71% 29.99 in 10.0 mi South 9.2 mph - N/A   Clear
9:55 AM 46.4 °F 41.1 °F 37.4 °F 71% 29.99 in 10.0 mi SW 11.5 mph - N/A   Clear
10:15 AM 48.2 °F - 37.4 °F 66% 29.99 in 10.0 mi SW 11.5 mph - N/A   Clear
10:35 AM 48.2 °F - 37.4 °F 66% 30.00 in 10.0 mi SW 9.2 mph - N/A   Clear
10:55 AM 48.2 °F - 37.4 °F 66% 30.00 in 10.0 mi SW 6.9 mph - N/A   Clear
11:15 AM 48.2 °F - 37.4 °F 66% 30.01 in 10.0 mi WSW 8.1 mph - N/A   Clear
11:35 AM 50.0 °F - 37.4 °F 62% 30.01 in 10.0 mi West 4.6 mph - N/A   Clear
11:55 AM 51.8 °F - 37.4 °F 58% 30.00 in 10.0 mi West 3.5 mph - N/A   Clear
12:15 PM 51.8 °F - 37.4 °F 58% 30.00 in 10.0 mi WSW 5.8 mph - N/A   Clear
12:35 PM 51.8 °F - 37.4 °F 58% 30.00 in 10.0 mi West 4.6 mph - N/A   Clear
12:55 PM 53.6 °F - 37.4 °F 54% 30.00 in 10.0 mi West 5.8 mph - N/A   Clear
1:15 PM 53.6 °F - 37.4 °F 54% 30.00 in 10.0 mi WNW 9.2 mph - N/A   Clear
1:35 PM 53.6 °F - 37.4 °F 54% 30.00 in 10.0 mi NW 8.1 mph - N/A   Clear
1:55 PM 55.4 °F - 37.4 °F 51% 30.00 in 10.0 mi NW 10.4 mph - N/A   Clear
2:15 PM 55.4 °F - 37.4 °F 51% 30.00 in 10.0 mi WNW 11.5 mph 16.1 mph N/A   Clear
2:35 PM 55.4 °F - 37.4 °F 51% 30.00 in 10.0 mi NW 15.0 mph - N/A   Clear
2:55 PM 55.4 °F - 37.4 °F 51% 30.01 in 10.0 mi NW 9.2 mph - N/A   Clear
3:15 PM 55.4 °F - 37.4 °F 51% 30.01 in 10.0 mi NW 9.2 mph - N/A   Clear
3:35 PM 55.4 °F - 37.4 °F 51% 30.01 in 10.0 mi NNW 9.2 mph - N/A   Clear
3:55 PM 53.6 °F - 37.4 °F 54% 30.02 in 10.0 mi NW 12.7 mph - N/A   Clear
4:15 PM 53.6 °F - 37.4 °F 54% 30.02 in 10.0 mi NW 6.9 mph - N/A   Clear
4:35 PM 51.8 °F - 37.4 °F 58% 30.03 in 10.0 mi NNW 6.9 mph - N/A   Clear
4:55 PM 51.8 °F - 37.4 °F 58% 30.04 in 10.0 mi NNW 8.1 mph - N/A   Clear
5:15 PM 50.0 °F - 37.4 °F 62% 30.04 in 10.0 mi NNW 4.6 mph - N/A   Clear
5:35 PM 46.4 °F 45.2 °F 37.4 °F 71% 30.05 in 10.0 mi NNW 3.5 mph - N/A   Clear
5:55 PM 48.2 °F - 37.4 °F 66% 30.05 in 10.0 mi NNW 3.5 mph - N/A   Clear
6:15 PM 44.6 °F 43.1 °F 37.4 °F 76% 30.06 in 10.0 mi NNW 3.5 mph - N/A   Clear
6:35 PM 44.6 °F 43.1 °F 37.4 °F 76% 30.07 in 10.0 mi NW 3.5 mph - N/A   Clear
6:55 PM 39.2 °F 35.9 °F 33.8 °F 81% 30.09 in 10.0 mi NW 4.6 mph - N/A   Clear
7:15 PM 41.0 °F 37.1 °F 35.6 °F 81% 30.09 in 10.0 mi WNW 5.8 mph - N/A   Clear
7:35 PM 37.4 °F 32.8 °F 33.8 °F 87% 30.09 in 7.0 mi NW 5.8 mph - N/A   Clear
7:55 PM 37.4 °F 32.8 °F 33.8 °F 87% 30.10 in 7.0 mi NW 5.8 mph - N/A   Clear
8:15 PM 39.2 °F 35.0 °F 33.8 °F 81% 30.11 in 7.0 mi NNW 5.8 mph - N/A   Clear
8:35 PM 39.2 °F - 33.8 °F 81% 30.10 in 10.0 mi Calm Calm - N/A   Clear
8:55 PM 37.4 °F 33.8 °F 33.8 °F 87% 30.10 in 10.0 mi NW 4.6 mph - N/A   Clear
9:15 PM 35.6 °F 30.7 °F 32.0 °F 87% 30.11 in 7.0 mi NW 5.8 mph - N/A   Clear
9:35 PM 35.6 °F 32.8 °F 33.8 °F 93% 30.11 in 7.0 mi NW 3.5 mph - N/A   Clear
9:55 PM 33.8 °F 29.6 °F 32.0 °F 93% 30.11 in 7.0 mi NNW 4.6 mph - N/A   Clear
10:15 PM 39.2 °F 33.6 °F 33.8 °F 81% 30.11 in 10.0 mi NNW 8.1 mph - N/A   Clear
10:35 PM 39.2 °F 33.6 °F 33.8 °F 81% 30.11 in 10.0 mi North 8.1 mph - N/A   Clear
10:55 PM 39.2 °F 34.2 °F 33.8 °F 81% 30.12 in 10.0 mi North 6.9 mph - N/A   Scattered Clouds
11:15 PM 39.2 °F 34.2 °F 33.8 °F 81% 30.12 in 10.0 mi NNW 6.9 mph - N/A   Clear
11:35 PM 37.4 °F 31.4 °F 33.8 °F 87% 30.12 in 10.0 mi North 8.1 mph - N/A   Clear
11:55 PM 37.4 °F 31.4 °F 33.8 °F 87% 30.13 in 10.0 mi North 8.1 mph - N/A   Clear